Year,Month,Day,Hour,Minute,Value (Times are PST for temperature in C)
2018,09,26,00,00,13.70
2018,09,26,00,01,13.70
2018,09,26,00,02,13.70
2018,09,26,00,03,13.70
2018,09,26,00,04,13.70
2018,09,26,00,05,13.70
2018,09,26,00,06,13.70
2018,09,26,00,07,13.70
2018,09,26,00,08,13.70
2018,09,26,00,09,13.70
2018,09,26,00,10,13.70
2018,09,26,00,11,13.80
2018,09,26,00,12,13.80
2018,09,26,00,13,13.80
2018,09,26,00,14,13.80
2018,09,26,00,15,13.80
2018,09,26,00,16,13.80
2018,09,26,00,17,13.70
2018,09,26,00,18,13.70
2018,09,26,00,19,13.70
2018,09,26,00,20,13.70
2018,09,26,00,21,13.70
2018,09,26,00,22,13.70
2018,09,26,00,23,13.70
2018,09,26,00,24,13.70
2018,09,26,00,25,13.70
2018,09,26,00,26,13.70
2018,09,26,00,27,13.70
2018,09,26,00,28,13.70
2018,09,26,00,29,13.70
2018,09,26,00,30,13.70
2018,09,26,00,31,13.70
2018,09,26,00,32,13.70
2018,09,26,00,33,13.70
2018,09,26,00,34,13.60
2018,09,26,00,35,13.60
2018,09,26,00,36,13.60
2018,09,26,00,37,13.60
2018,09,26,00,38,13.60
2018,09,26,00,39,13.60
2018,09,26,00,40,13.60
2018,09,26,00,41,13.50
2018,09,26,00,42,13.50
2018,09,26,00,43,13.50
2018,09,26,00,44,13.50
2018,09,26,00,45,13.50
2018,09,26,00,46,13.50
2018,09,26,00,47,13.60
2018,09,26,00,48,13.60
2018,09,26,00,49,13.60
2018,09,26,00,50,13.60
2018,09,26,00,51,13.60
2018,09,26,00,52,13.60
2018,09,26,00,53,13.60
2018,09,26,00,54,13.60
2018,09,26,00,55,13.50
2018,09,26,00,56,13.50
2018,09,26,00,57,13.50
2018,09,26,00,58,13.40
2018,09,26,00,59,13.40
2018,09,26,01,00,13.40
2018,09,26,01,01,13.40
2018,09,26,01,02,13.40
2018,09,26,01,03,13.40
2018,09,26,01,04,13.40
2018,09,26,01,05,13.40
2018,09,26,01,06,13.40
2018,09,26,01,07,13.40
2018,09,26,01,08,13.40
2018,09,26,01,09,13.40
2018,09,26,01,10,13.40
2018,09,26,01,11,13.40
2018,09,26,01,12,13.40
2018,09,26,01,13,13.40
2018,09,26,01,14,13.40
2018,09,26,01,15,13.40
2018,09,26,01,16,13.40
2018,09,26,01,17,13.40
2018,09,26,01,18,13.40
2018,09,26,01,19,13.40
2018,09,26,01,20,13.40
2018,09,26,01,21,13.40
2018,09,26,01,22,13.40
2018,09,26,01,23,13.40
2018,09,26,01,24,13.40
2018,09,26,01,25,13.40
2018,09,26,01,26,13.40
2018,09,26,01,27,13.40
2018,09,26,01,28,13.40
2018,09,26,01,29,13.40
2018,09,26,01,30,13.40
2018,09,26,01,31,13.40
2018,09,26,01,32,13.40
2018,09,26,01,33,13.40
2018,09,26,01,34,13.40
2018,09,26,01,35,13.40
2018,09,26,01,36,13.40
2018,09,26,01,37,13.30
2018,09,26,01,38,13.30
2018,09,26,01,39,13.30
2018,09,26,01,40,13.30
2018,09,26,01,41,13.30
2018,09,26,01,42,13.30
2018,09,26,01,43,13.30
2018,09,26,01,44,13.30
2018,09,26,01,45,13.40
2018,09,26,01,46,13.40
2018,09,26,01,47,13.40
2018,09,26,01,48,13.40
2018,09,26,01,49,13.40
2018,09,26,01,50,13.40
2018,09,26,01,51,13.40
2018,09,26,01,52,13.40
2018,09,26,01,53,13.40
2018,09,26,01,54,13.40
2018,09,26,01,55,13.40
2018,09,26,01,56,13.40
2018,09,26,01,57,13.40
2018,09,26,01,58,13.40
2018,09,26,01,59,13.30
2018,09,26,02,00,13.30
2018,09,26,02,01,13.30
2018,09,26,02,02,13.30
2018,09,26,02,03,13.30
2018,09,26,02,04,13.30
2018,09,26,02,05,13.30
2018,09,26,02,06,13.30
2018,09,26,02,07,13.30
2018,09,26,02,08,13.30
2018,09,26,02,09,13.20
2018,09,26,02,10,13.20
2018,09,26,02,11,13.20
2018,09,26,02,12,13.20
2018,09,26,02,13,13.20
2018,09,26,02,14,13.20
2018,09,26,02,15,13.20
2018,09,26,02,16,13.20
2018,09,26,02,17,13.20
2018,09,26,02,18,13.20
2018,09,26,02,19,13.30
2018,09,26,02,20,13.30
2018,09,26,02,21,13.30
2018,09,26,02,22,13.30
2018,09,26,02,23,13.40
2018,09,26,02,24,13.40
2018,09,26,02,25,13.40
2018,09,26,02,26,13.30
2018,09,26,02,27,13.30
2018,09,26,02,28,13.30
2018,09,26,02,29,13.30
2018,09,26,02,30,13.30
2018,09,26,02,31,13.30
2018,09,26,02,32,13.20
2018,09,26,02,33,13.20
2018,09,26,02,34,13.20
2018,09,26,02,35,13.20
2018,09,26,02,36,13.20
2018,09,26,02,37,13.10
2018,09,26,02,38,13.10
2018,09,26,02,39,13.10
2018,09,26,02,40,13.10
2018,09,26,02,41,13.10
2018,09,26,02,42,13.10
2018,09,26,02,43,13.10
2018,09,26,02,44,13.00
2018,09,26,02,45,13.00
2018,09,26,02,46,12.90
2018,09,26,02,47,12.90
2018,09,26,02,48,12.80
2018,09,26,02,49,12.80
2018,09,26,02,50,12.80
2018,09,26,02,51,12.80
2018,09,26,02,52,12.80
2018,09,26,02,53,12.80
2018,09,26,02,54,12.70
2018,09,26,02,55,12.70
2018,09,26,02,56,12.70
2018,09,26,02,57,12.70
2018,09,26,02,58,12.70
2018,09,26,02,59,12.70
2018,09,26,03,00,12.70
2018,09,26,03,01,12.70
2018,09,26,03,02,12.70
2018,09,26,03,03,12.60
2018,09,26,03,04,12.60
2018,09,26,03,05,12.60
2018,09,26,03,06,12.60
2018,09,26,03,07,12.50
2018,09,26,03,08,12.50
2018,09,26,03,09,12.50
2018,09,26,03,10,12.40
2018,09,26,03,11,12.40
2018,09,26,03,12,12.40
2018,09,26,03,13,12.30
2018,09,26,03,14,12.30
2018,09,26,03,15,12.40
2018,09,26,03,16,12.40
2018,09,26,03,17,12.40
2018,09,26,03,18,12.40
2018,09,26,03,19,12.50
2018,09,26,03,20,12.50
2018,09,26,03,21,12.50
2018,09,26,03,22,12.50
2018,09,26,03,23,12.50
2018,09,26,03,24,12.40
2018,09,26,03,25,12.40
2018,09,26,03,26,12.40
2018,09,26,03,27,12.50
2018,09,26,03,28,12.70
2018,09,26,03,29,12.70
2018,09,26,03,30,12.80
2018,09,26,03,31,12.90
2018,09,26,03,32,12.90
2018,09,26,03,33,13.10
2018,09,26,03,34,13.20
2018,09,26,03,35,13.30
2018,09,26,03,36,13.40
2018,09,26,03,37,13.40
2018,09,26,03,38,13.50
2018,09,26,03,39,13.50
2018,09,26,03,40,13.50
2018,09,26,03,41,13.40
2018,09,26,03,42,13.40
2018,09,26,03,43,13.30
2018,09,26,03,44,13.30
2018,09,26,03,45,13.20
2018,09,26,03,46,13.10
2018,09,26,03,47,13.10
2018,09,26,03,48,13.00
2018,09,26,03,49,13.00
2018,09,26,03,50,12.90
2018,09,26,03,51,13.00
2018,09,26,03,52,13.00
2018,09,26,03,53,12.90
2018,09,26,03,54,12.90
2018,09,26,03,55,12.90
2018,09,26,03,56,12.80
2018,09,26,03,57,12.70
2018,09,26,03,58,12.70
2018,09,26,03,59,12.60
2018,09,26,04,00,12.60
2018,09,26,04,01,12.50
2018,09,26,04,02,12.40
2018,09,26,04,03,12.40
2018,09,26,04,04,12.30
2018,09,26,04,05,12.30
2018,09,26,04,06,12.30
2018,09,26,04,07,12.20
2018,09,26,04,08,12.20
2018,09,26,04,09,12.20
2018,09,26,04,10,12.20
2018,09,26,04,11,12.10
2018,09,26,04,12,12.10
2018,09,26,04,13,12.10
2018,09,26,04,14,12.10
2018,09,26,04,15,12.10
2018,09,26,04,16,12.10
2018,09,26,04,17,12.00
2018,09,26,04,18,12.00
2018,09,26,04,19,11.90
2018,09,26,04,20,11.90
2018,09,26,04,21,11.80
2018,09,26,04,22,11.80
2018,09,26,04,23,11.80
2018,09,26,04,24,11.80
2018,09,26,04,25,11.70
2018,09,26,04,26,11.70
2018,09,26,04,27,11.70
2018,09,26,04,28,11.60
2018,09,26,04,29,11.60
2018,09,26,04,30,11.60
2018,09,26,04,31,11.50
2018,09,26,04,32,11.50
2018,09,26,04,33,11.40
2018,09,26,04,34,11.40
2018,09,26,04,35,11.30
2018,09,26,04,36,11.30
2018,09,26,04,37,11.30
2018,09,26,04,38,11.30
2018,09,26,04,39,11.30
2018,09,26,04,40,11.20
2018,09,26,04,41,11.20
2018,09,26,04,42,11.20
2018,09,26,04,43,11.10
2018,09,26,04,44,11.10
2018,09,26,04,45,11.10
2018,09,26,04,46,11.00
2018,09,26,04,47,11.00
2018,09,26,04,48,10.90
2018,09,26,04,49,10.90
2018,09,26,04,50,10.90
2018,09,26,04,51,10.80
2018,09,26,04,52,10.80
2018,09,26,04,53,10.80
2018,09,26,04,54,10.80
2018,09,26,04,55,10.70
2018,09,26,04,56,10.70
2018,09,26,04,57,10.70
2018,09,26,04,58,10.70
2018,09,26,04,59,10.60
2018,09,26,05,00,10.60
2018,09,26,05,01,10.60
2018,09,26,05,02,10.60
2018,09,26,05,03,10.60
2018,09,26,05,04,10.50
2018,09,26,05,05,10.50
2018,09,26,05,06,10.50
2018,09,26,05,07,10.50
2018,09,26,05,08,10.40
2018,09,26,05,09,10.40
2018,09,26,05,10,10.40
2018,09,26,05,11,10.40
2018,09,26,05,12,10.40
2018,09,26,05,13,10.40
2018,09,26,05,14,10.30
2018,09,26,05,15,10.30
2018,09,26,05,16,10.30
2018,09,26,05,17,10.30
2018,09,26,05,18,10.30
2018,09,26,05,19,10.30
2018,09,26,05,20,10.30
2018,09,26,05,21,10.30
2018,09,26,05,22,10.30
2018,09,26,05,23,10.20
2018,09,26,05,24,10.20
2018,09,26,05,25,10.20
2018,09,26,05,26,10.20
2018,09,26,05,27,10.20
2018,09,26,05,28,10.20
2018,09,26,05,29,10.20
2018,09,26,05,30,10.10
2018,09,26,05,31,10.10
2018,09,26,05,32,10.10
2018,09,26,05,33,10.10
2018,09,26,05,34,10.10
2018,09,26,05,35,10.00
2018,09,26,05,36,10.00
2018,09,26,05,37,10.00
2018,09,26,05,38,9.90
2018,09,26,05,39,9.90
2018,09,26,05,40,9.90
2018,09,26,05,41,9.80
2018,09,26,05,42,9.80
2018,09,26,05,43,9.80
2018,09,26,05,44,9.80
2018,09,26,05,45,9.80
2018,09,26,05,46,9.80
2018,09,26,05,47,9.70
2018,09,26,05,48,9.70
2018,09,26,05,49,9.70
2018,09,26,05,50,9.60
2018,09,26,05,51,9.60
2018,09,26,05,52,9.60
2018,09,26,05,53,9.60
2018,09,26,05,54,9.50
2018,09,26,05,55,9.50
2018,09,26,05,56,9.50
2018,09,26,05,57,9.50
2018,09,26,05,58,9.40
2018,09,26,05,59,9.40
2018,09,26,06,00,9.40
2018,09,26,06,01,9.40
2018,09,26,06,02,9.40
2018,09,26,06,03,9.30
2018,09,26,06,04,9.30
2018,09,26,06,05,9.30
2018,09,26,06,06,9.30
2018,09,26,06,07,9.30
2018,09,26,06,08,9.30
2018,09,26,06,09,9.30
2018,09,26,06,10,9.30
2018,09,26,06,11,9.30
2018,09,26,06,12,9.40
2018,09,26,06,13,9.40
2018,09,26,06,14,9.40
2018,09,26,06,15,9.40
2018,09,26,06,16,9.40
2018,09,26,06,17,9.40
2018,09,26,06,18,9.40
2018,09,26,06,19,9.40
2018,09,26,06,20,9.40
2018,09,26,06,21,9.40
2018,09,26,06,22,9.40
2018,09,26,06,23,9.40
2018,09,26,06,24,9.50
2018,09,26,06,25,9.40
2018,09,26,06,26,9.40
2018,09,26,06,27,9.50
2018,09,26,06,28,9.60
2018,09,26,06,29,9.60
2018,09,26,06,30,9.70
2018,09,26,06,31,9.70
2018,09,26,06,32,9.90
2018,09,26,06,33,10.20
2018,09,26,06,34,10.40
2018,09,26,06,35,10.60
2018,09,26,06,36,10.70
2018,09,26,06,37,10.80
2018,09,26,06,38,10.80
2018,09,26,06,39,10.80
2018,09,26,06,40,10.80
2018,09,26,06,41,10.90
2018,09,26,06,42,10.90
2018,09,26,06,43,10.90
2018,09,26,06,44,10.90
2018,09,26,06,45,10.90
2018,09,26,06,46,10.90
2018,09,26,06,47,10.90
2018,09,26,06,48,10.90
2018,09,26,06,49,10.80
2018,09,26,06,50,10.80
2018,09,26,06,51,10.90
2018,09,26,06,52,11.10
2018,09,26,06,53,11.30
2018,09,26,06,54,11.50
2018,09,26,06,55,11.70
2018,09,26,06,56,11.90
2018,09,26,06,57,12.10
2018,09,26,06,58,12.10
2018,09,26,06,59,12.20
2018,09,26,07,00,12.20
2018,09,26,07,01,12.20
2018,09,26,07,02,12.20
2018,09,26,07,03,12.20
2018,09,26,07,04,12.10
2018,09,26,07,05,12.00
2018,09,26,07,06,11.90
2018,09,26,07,07,11.80
2018,09,26,07,08,11.80
2018,09,26,07,09,11.70
2018,09,26,07,10,11.60
2018,09,26,07,11,11.60
2018,09,26,07,12,11.50
2018,09,26,07,13,11.40
2018,09,26,07,14,11.30
2018,09,26,07,15,11.30
2018,09,26,07,16,11.20
2018,09,26,07,17,11.20
2018,09,26,07,18,11.10
2018,09,26,07,19,11.10
2018,09,26,07,20,11.10
2018,09,26,07,21,11.00
2018,09,26,07,22,11.00
2018,09,26,07,23,11.00
2018,09,26,07,24,10.90
2018,09,26,07,25,10.90
2018,09,26,07,26,10.90
2018,09,26,07,27,10.80
2018,09,26,07,28,10.80
2018,09,26,07,29,10.80
2018,09,26,07,30,10.80
2018,09,26,07,31,10.80
2018,09,26,07,32,10.70
2018,09,26,07,33,10.70
2018,09,26,07,34,10.70
2018,09,26,07,35,10.70
2018,09,26,07,36,10.60
2018,09,26,07,37,10.60
2018,09,26,07,38,10.60
2018,09,26,07,39,10.60
2018,09,26,07,40,10.60
2018,09,26,07,41,10.60
2018,09,26,07,42,10.50
2018,09,26,07,43,10.50
2018,09,26,07,44,10.50
2018,09,26,07,45,10.40
2018,09,26,07,46,10.40
2018,09,26,07,47,10.40
2018,09,26,07,48,10.40
2018,09,26,07,49,10.40
2018,09,26,07,50,10.30
2018,09,26,07,51,10.30
2018,09,26,07,52,10.30
2018,09,26,07,53,10.30
2018,09,26,07,54,10.20
2018,09,26,07,55,10.20
2018,09,26,07,56,10.20
2018,09,26,07,57,10.20
2018,09,26,07,58,10.20
2018,09,26,07,59,10.20
2018,09,26,08,00,10.20
2018,09,26,08,01,10.20
2018,09,26,08,02,10.10
2018,09,26,08,03,10.10
2018,09,26,08,04,10.10
2018,09,26,08,05,10.10
2018,09,26,08,06,10.10
2018,09,26,08,07,10.10
2018,09,26,08,08,10.10
2018,09,26,08,09,10.10
2018,09,26,08,10,10.00
2018,09,26,08,11,10.00
2018,09,26,08,12,10.00
2018,09,26,08,13,10.00
2018,09,26,08,14,10.00
2018,09,26,08,15,9.90
2018,09,26,08,16,9.90
2018,09,26,08,17,9.90
2018,09,26,08,18,9.90
2018,09,26,08,19,9.90
2018,09,26,08,20,9.80
2018,09,26,08,21,9.80
2018,09,26,08,22,9.80
2018,09,26,08,23,9.80
2018,09,26,08,24,9.80
2018,09,26,08,25,9.80
2018,09,26,08,26,9.80
2018,09,26,08,27,9.80
2018,09,26,08,28,9.80
2018,09,26,08,29,9.80
2018,09,26,08,30,9.70
2018,09,26,08,31,9.70
2018,09,26,08,32,9.70
2018,09,26,08,33,9.70
2018,09,26,08,34,9.70
2018,09,26,08,35,9.70
2018,09,26,08,36,9.70
2018,09,26,08,37,9.70
2018,09,26,08,38,9.70
2018,09,26,08,39,9.70
2018,09,26,08,40,9.60
2018,09,26,08,41,9.60
2018,09,26,08,42,9.60
2018,09,26,08,43,9.60
2018,09,26,08,44,9.60
2018,09,26,08,45,9.60
2018,09,26,08,46,9.50
2018,09,26,08,47,9.60
2018,09,26,08,48,9.60
2018,09,26,08,49,9.60
2018,09,26,08,50,9.50
2018,09,26,08,51,9.50
2018,09,26,08,52,9.50
2018,09,26,08,53,9.50
2018,09,26,08,54,9.60
2018,09,26,08,55,9.60
2018,09,26,08,56,9.60
2018,09,26,08,57,9.60
2018,09,26,08,58,9.60
2018,09,26,08,59,9.50
2018,09,26,09,00,9.50
2018,09,26,09,01,9.50
2018,09,26,09,02,9.50
2018,09,26,09,03,9.50
2018,09,26,09,04,9.50
2018,09,26,09,05,9.50
2018,09,26,09,06,9.50
2018,09,26,09,07,9.50
2018,09,26,09,08,9.50
2018,09,26,09,09,9.50
2018,09,26,09,10,9.50
2018,09,26,09,11,9.40
2018,09,26,09,12,9.50
2018,09,26,09,13,9.50
2018,09,26,09,14,9.40
2018,09,26,09,15,9.40
2018,09,26,09,16,9.40
2018,09,26,09,17,9.40
2018,09,26,09,18,9.40
2018,09,26,09,19,9.40
2018,09,26,09,20,9.40
2018,09,26,09,21,9.40
2018,09,26,09,22,9.40
2018,09,26,09,23,9.40
2018,09,26,09,24,9.40
2018,09,26,09,25,9.40
2018,09,26,09,26,9.40
2018,09,26,09,27,9.40
2018,09,26,09,28,9.40
2018,09,26,09,29,9.40
2018,09,26,09,30,9.40
2018,09,26,09,31,9.40
2018,09,26,09,32,9.50
2018,09,26,09,33,9.50
2018,09,26,09,34,9.50
2018,09,26,09,35,9.50
2018,09,26,09,36,9.50
2018,09,26,09,37,9.50
2018,09,26,09,38,9.50
2018,09,26,09,39,9.60
2018,09,26,09,40,9.60
2018,09,26,09,41,9.60
2018,09,26,09,42,9.60
2018,09,26,09,43,9.60
2018,09,26,09,44,9.60
2018,09,26,09,45,9.60
2018,09,26,09,46,9.60
2018,09,26,09,47,9.60
2018,09,26,09,48,9.60
2018,09,26,09,49,9.70
2018,09,26,09,50,9.70
2018,09,26,09,51,9.70
2018,09,26,09,52,9.70
2018,09,26,09,53,9.70
2018,09,26,09,54,9.70
2018,09,26,09,55,9.80
2018,09,26,09,56,9.70
2018,09,26,09,57,9.70
2018,09,26,09,58,9.70
2018,09,26,09,59,9.70
2018,09,26,10,00,9.70
2018,09,26,10,01,9.70
2018,09,26,10,02,9.70
2018,09,26,10,03,9.70
2018,09,26,10,04,9.80
2018,09,26,10,05,9.80
2018,09,26,10,06,9.80
2018,09,26,10,07,9.90
2018,09,26,10,08,9.90
2018,09,26,10,09,10.00
2018,09,26,10,10,10.10
2018,09,26,10,11,10.10
2018,09,26,10,12,10.20
2018,09,26,10,13,10.20
2018,09,26,10,14,10.20
2018,09,26,10,15,10.30
2018,09,26,10,16,10.30
2018,09,26,10,17,10.30
2018,09,26,10,18,10.30
2018,09,26,10,19,10.40
2018,09,26,10,20,10.40
2018,09,26,10,21,10.50
2018,09,26,10,22,10.50
2018,09,26,10,23,10.60
2018,09,26,10,24,10.60
2018,09,26,10,25,10.70
2018,09,26,10,26,10.70
2018,09,26,10,27,10.70
2018,09,26,10,28,10.80
2018,09,26,10,29,10.80
2018,09,26,10,30,10.80
2018,09,26,10,31,10.80
2018,09,26,10,32,10.80
2018,09,26,10,33,10.80
2018,09,26,10,34,10.90
2018,09,26,10,35,10.90
2018,09,26,10,36,10.90
2018,09,26,10,37,11.00
2018,09,26,10,38,11.00
2018,09,26,10,39,11.10
2018,09,26,10,40,11.10
2018,09,26,10,41,11.20
2018,09,26,10,42,11.30
2018,09,26,10,43,11.40
2018,09,26,10,44,11.60
2018,09,26,10,45,11.70
2018,09,26,10,46,11.80
2018,09,26,10,47,11.90
2018,09,26,10,48,12.00
2018,09,26,10,49,12.20
2018,09,26,10,50,12.30
2018,09,26,10,51,12.30
2018,09,26,10,52,12.50
2018,09,26,10,53,12.60
2018,09,26,10,54,12.80
2018,09,26,10,55,12.90
2018,09,26,10,56,13.00
2018,09,26,10,57,13.20
2018,09,26,10,58,13.30
2018,09,26,10,59,13.40
2018,09,26,11,00,13.50
2018,09,26,11,01,13.70
2018,09,26,11,02,13.80
2018,09,26,11,03,13.90
2018,09,26,11,04,14.00
2018,09,26,11,05,14.20
2018,09,26,11,06,14.30
2018,09,26,11,07,14.40
2018,09,26,11,08,14.60
2018,09,26,11,09,14.70
2018,09,26,11,10,14.80
2018,09,26,11,11,14.80
2018,09,26,11,12,14.90
2018,09,26,11,13,15.00
2018,09,26,11,14,15.10
2018,09,26,11,15,15.20
2018,09,26,11,16,15.30
2018,09,26,11,17,15.30
2018,09,26,11,18,15.40
2018,09,26,11,19,15.50
2018,09,26,11,20,15.50
2018,09,26,11,21,15.60
2018,09,26,11,22,15.70
2018,09,26,11,23,15.80
2018,09,26,11,24,15.90
2018,09,26,11,25,16.00
2018,09,26,11,26,16.20
2018,09,26,11,27,16.30
2018,09,26,11,28,16.50
2018,09,26,11,29,16.60
2018,09,26,11,30,16.80
2018,09,26,11,31,16.80
2018,09,26,11,32,16.90
2018,09,26,11,33,17.00
2018,09,26,11,34,17.10
2018,09,26,11,35,17.20
2018,09,26,11,36,17.30
2018,09,26,11,37,17.40
2018,09,26,11,38,17.40
2018,09,26,11,39,17.50
2018,09,26,11,40,17.60
2018,09,26,11,41,17.70
2018,09,26,11,42,17.70
2018,09,26,11,43,17.80
2018,09,26,11,44,17.80
2018,09,26,11,45,17.90
2018,09,26,11,46,18.00
2018,09,26,11,47,18.10
2018,09,26,11,48,18.10
2018,09,26,11,49,18.20
2018,09,26,11,50,18.20
2018,09,26,11,51,18.30
2018,09,26,11,52,18.40
2018,09,26,11,53,18.50
2018,09,26,11,54,18.50
2018,09,26,11,55,18.60
2018,09,26,11,56,18.70
2018,09,26,11,57,18.80
2018,09,26,11,58,18.80
2018,09,26,11,59,18.90
2018,09,26,12,00,18.90
2018,09,26,12,01,18.90
2018,09,26,12,02,18.90
2018,09,26,12,03,19.00
2018,09,26,12,04,19.00
2018,09,26,12,05,19.00
2018,09,26,12,06,19.00
2018,09,26,12,07,19.10
2018,09,26,12,08,19.10
2018,09,26,12,09,19.10
2018,09,26,12,10,19.20
2018,09,26,12,11,19.20
2018,09,26,12,12,19.20
2018,09,26,12,13,19.30
2018,09,26,12,14,19.30
2018,09,26,12,15,19.40
2018,09,26,12,16,19.60
2018,09,26,12,17,19.80
2018,09,26,12,18,19.90
2018,09,26,12,19,20.10
2018,09,26,12,20,20.20
2018,09,26,12,21,20.30
2018,09,26,12,22,20.30
2018,09,26,12,23,20.30
2018,09,26,12,24,20.40
2018,09,26,12,25,20.40
2018,09,26,12,26,20.40
2018,09,26,12,27,20.50
2018,09,26,12,28,20.60
2018,09,26,12,29,20.70
2018,09,26,12,30,20.70
2018,09,26,12,31,20.80
2018,09,26,12,32,20.80
2018,09,26,12,33,20.80
2018,09,26,12,34,20.80
2018,09,26,12,35,20.80
2018,09,26,12,36,20.80
2018,09,26,12,37,20.80
2018,09,26,12,38,20.80
2018,09,26,12,39,20.80
2018,09,26,12,40,20.80
2018,09,26,12,41,20.90
2018,09,26,12,42,21.00
2018,09,26,12,43,21.10
2018,09,26,12,44,21.10
2018,09,26,12,45,21.20
2018,09,26,12,46,21.20
2018,09,26,12,47,21.30
2018,09,26,12,48,21.30
2018,09,26,12,49,21.20
2018,09,26,12,50,21.20
2018,09,26,12,51,21.20
2018,09,26,12,52,21.20
2018,09,26,12,53,21.20
2018,09,26,12,54,21.20
2018,09,26,12,55,21.30
2018,09,26,12,56,21.50
2018,09,26,12,57,21.60
2018,09,26,12,58,21.60
2018,09,26,12,59,21.60
2018,09,26,13,00,21.60
2018,09,26,13,01,21.60
2018,09,26,13,02,21.70
2018,09,26,13,03,21.70
2018,09,26,13,04,21.80
2018,09,26,13,05,21.80
2018,09,26,13,06,21.80
2018,09,26,13,07,21.80
2018,09,26,13,08,21.80
2018,09,26,13,09,21.80
2018,09,26,13,10,21.90
2018,09,26,13,11,21.90
2018,09,26,13,12,21.90
2018,09,26,13,13,21.90
2018,09,26,13,14,21.90
2018,09,26,13,15,21.90
2018,09,26,13,16,22.00
2018,09,26,13,17,22.00
2018,09,26,13,18,22.00
2018,09,26,13,19,22.10
2018,09,26,13,20,22.20
2018,09,26,13,21,22.20
2018,09,26,13,22,22.30
2018,09,26,13,23,22.30
2018,09,26,13,24,22.30
2018,09,26,13,25,22.30
2018,09,26,13,26,22.40
2018,09,26,13,27,22.40
2018,09,26,13,28,22.40
2018,09,26,13,29,22.40
2018,09,26,13,30,22.40
2018,09,26,13,31,22.40
2018,09,26,13,32,22.40
2018,09,26,13,33,22.40
2018,09,26,13,34,22.40
2018,09,26,13,35,22.40
2018,09,26,13,36,22.40
2018,09,26,13,37,22.40
2018,09,26,13,38,22.40
2018,09,26,13,39,22.40
2018,09,26,13,40,22.50
2018,09,26,13,41,22.50
2018,09,26,13,42,22.50
2018,09,26,13,43,22.50
2018,09,26,13,44,22.50
2018,09,26,13,45,22.60
2018,09,26,13,46,22.60
2018,09,26,13,47,22.60
2018,09,26,13,48,22.60
2018,09,26,13,49,22.60
2018,09,26,13,50,22.60
2018,09,26,13,51,22.70
2018,09,26,13,52,22.70
2018,09,26,13,53,22.70
2018,09,26,13,54,22.70
2018,09,26,13,55,22.70
2018,09,26,13,56,22.70
2018,09,26,13,57,22.70
2018,09,26,13,58,22.80
2018,09,26,13,59,22.80
2018,09,26,14,00,22.80
2018,09,26,14,01,22.80
2018,09,26,14,02,22.90
2018,09,26,14,03,22.90
2018,09,26,14,04,22.90
2018,09,26,14,05,22.90
2018,09,26,14,06,23.00
2018,09,26,14,07,23.00
2018,09,26,14,08,23.00
2018,09,26,14,09,23.00
2018,09,26,14,10,23.00
2018,09,26,14,11,23.00
2018,09,26,14,12,23.00
2018,09,26,14,13,23.00
2018,09,26,14,14,23.00
2018,09,26,14,15,23.00
2018,09,26,14,16,23.10
2018,09,26,14,17,23.10
2018,09,26,14,18,23.10
2018,09,26,14,19,23.00
2018,09,26,14,20,23.10
2018,09,26,14,21,23.10
2018,09,26,14,22,23.10
2018,09,26,14,23,23.10
2018,09,26,14,24,23.20
2018,09,26,14,25,23.10
2018,09,26,14,26,23.10
2018,09,26,14,27,23.20
2018,09,26,14,28,23.20
2018,09,26,14,29,23.20
2018,09,26,14,30,23.30
2018,09,26,14,31,23.30
2018,09,26,14,32,23.30
2018,09,26,14,33,23.30
2018,09,26,14,34,23.30
2018,09,26,14,35,23.30
2018,09,26,14,36,23.30
2018,09,26,14,37,23.30
2018,09,26,14,38,23.30
2018,09,26,14,39,23.30
2018,09,26,14,40,23.40
2018,09,26,14,41,23.30
2018,09,26,14,42,23.30
2018,09,26,14,43,23.30
2018,09,26,14,44,23.30
2018,09,26,14,45,23.30
2018,09,26,14,46,23.30
2018,09,26,14,47,23.30
2018,09,26,14,48,23.40
2018,09,26,14,49,23.40
2018,09,26,14,50,23.40
2018,09,26,14,51,23.40
2018,09,26,14,52,23.50
2018,09,26,14,53,23.50
2018,09,26,14,54,23.50
2018,09,26,14,55,23.50
2018,09,26,14,56,23.50
2018,09,26,14,57,23.50
2018,09,26,14,58,23.60
2018,09,26,14,59,23.60
2018,09,26,15,00,23.60
2018,09,26,15,01,23.60
2018,09,26,15,02,23.70
2018,09,26,15,03,23.70
2018,09,26,15,04,23.70
2018,09,26,15,05,23.70
2018,09,26,15,06,23.70
2018,09,26,15,07,23.70
2018,09,26,15,08,23.70
2018,09,26,15,09,23.70
2018,09,26,15,10,23.60
2018,09,26,15,11,23.60
2018,09,26,15,12,23.60
2018,09,26,15,13,23.60
2018,09,26,15,14,23.60
2018,09,26,15,15,23.60
2018,09,26,15,16,23.70
2018,09,26,15,17,23.70
2018,09,26,15,18,23.70
2018,09,26,15,19,23.80
2018,09,26,15,20,23.70
2018,09,26,15,21,23.80
2018,09,26,15,22,23.80
2018,09,26,15,23,23.80
2018,09,26,15,24,23.80
2018,09,26,15,25,23.80
2018,09,26,15,26,23.80
2018,09,26,15,27,23.90
2018,09,26,15,28,23.90
2018,09,26,15,29,23.90
2018,09,26,15,30,23.90
2018,09,26,15,31,23.90
2018,09,26,15,32,23.90
2018,09,26,15,33,23.90
2018,09,26,15,34,23.90
2018,09,26,15,35,23.90
2018,09,26,15,36,23.90
2018,09,26,15,37,23.90
2018,09,26,15,38,23.90
2018,09,26,15,39,23.90
2018,09,26,15,40,23.90
2018,09,26,15,41,23.90
2018,09,26,15,42,24.00
2018,09,26,15,43,23.90
2018,09,26,15,44,24.00
2018,09,26,15,45,24.00
2018,09,26,15,46,24.00
2018,09,26,15,47,24.00
2018,09,26,15,48,24.00
2018,09,26,15,49,24.00
2018,09,26,15,50,24.00
2018,09,26,15,51,23.90
2018,09,26,15,52,23.90
2018,09,26,15,53,23.90
2018,09,26,15,54,23.90
2018,09,26,15,55,23.90
2018,09,26,15,56,24.00
2018,09,26,15,57,24.00
2018,09,26,15,58,24.00
2018,09,26,15,59,24.00
2018,09,26,16,00,24.00
2018,09,26,16,01,24.00
2018,09,26,16,02,24.00
2018,09,26,16,03,24.00
2018,09,26,16,04,24.00
2018,09,26,16,05,24.00
2018,09,26,16,06,24.00
2018,09,26,16,07,24.00
2018,09,26,16,08,24.00
2018,09,26,16,09,24.00
2018,09,26,16,10,24.00
2018,09,26,16,11,24.00
2018,09,26,16,12,24.00
2018,09,26,16,13,24.00
2018,09,26,16,14,24.00
2018,09,26,16,15,24.00
2018,09,26,16,16,24.00
2018,09,26,16,17,24.00
2018,09,26,16,18,24.00
2018,09,26,16,19,24.10
2018,09,26,16,20,24.10
2018,09,26,16,21,24.00
2018,09,26,16,22,23.90
2018,09,26,16,23,23.90
2018,09,26,16,24,23.90
2018,09,26,16,25,24.00
2018,09,26,16,26,23.90
2018,09,26,16,27,23.90
2018,09,26,16,28,23.90
2018,09,26,16,29,23.80
2018,09,26,16,30,23.70
2018,09,26,16,31,23.70
2018,09,26,16,32,23.70
2018,09,26,16,33,23.60
2018,09,26,16,34,23.60
2018,09,26,16,35,23.60
2018,09,26,16,36,23.60
2018,09,26,16,37,23.60
2018,09,26,16,38,23.60
2018,09,26,16,39,23.60
2018,09,26,16,40,23.60
2018,09,26,16,41,23.60
2018,09,26,16,42,23.60
2018,09,26,16,43,23.50
2018,09,26,16,44,23.50
2018,09,26,16,45,23.50
2018,09,26,16,46,23.50
2018,09,26,16,47,23.50
2018,09,26,16,48,23.50
2018,09,26,16,49,23.50
2018,09,26,16,50,23.50
2018,09,26,16,51,23.50
2018,09,26,16,52,23.40
2018,09,26,16,53,23.40
2018,09,26,16,54,23.40
2018,09,26,16,55,23.40
2018,09,26,16,56,23.40
2018,09,26,16,57,23.40
2018,09,26,16,58,23.40
2018,09,26,16,59,23.40
2018,09,26,17,00,23.40
2018,09,26,17,01,23.40
2018,09,26,17,02,23.40
2018,09,26,17,03,23.40
2018,09,26,17,04,23.40
2018,09,26,17,05,23.40
2018,09,26,17,06,23.40
2018,09,26,17,07,23.40
2018,09,26,17,08,23.40
2018,09,26,17,09,23.40
2018,09,26,17,10,23.40
2018,09,26,17,11,23.40
2018,09,26,17,12,23.40
2018,09,26,17,13,23.40
2018,09,26,17,14,23.40
2018,09,26,17,15,23.40
2018,09,26,17,16,23.40
2018,09,26,17,17,23.30
2018,09,26,17,18,23.30
2018,09,26,17,19,23.30
2018,09,26,17,20,23.20
2018,09,26,17,21,23.10
2018,09,26,17,22,23.10
2018,09,26,17,23,23.00
2018,09,26,17,24,23.00
2018,09,26,17,25,22.90
2018,09,26,17,26,22.90